EW4351 Weather Reports


time (UTC)temp
F
wind
direction
speed
knots
gust
knots
rain 1hr
in
rain 24hr
in
rain mn
in
humidity
%
barometer
mb
20260505151604 61 190 0.9 8.7 0.00 0.02 0.01 73 1009.4
20260505124249 57 135 0.0 0.0 0.00 0.01 0.00 78 1009.6
20260505122732 56 158 0.0 0.0 0.00 0.01 0.00 80 1009.8
20260505121252 54 154 0.0 0.0 0.00 0.01 0.00 83 1009.9
20260505115731 52 48 0.0 0.0 0.00 0.01 0.00 84 1009.7
20260505114242 51 48 0.0 0.0 0.00 0.01 0.00 85 1009.8
20260505112805 50 48 0.0 0.0 0.00 0.01 0.00 86 1009.7
20260505111220 49 48 0.0 0.0 0.00 0.01 0.00 87 1009.6
20260505101052 46 37 0.0 0.0 0.00 0.01 0.00 89 1009.6
20260505095509 46 37 0.0 0.0 0.00 0.01 0.00 88 1009.5
20260505093925 45 37 0.0 0.0 0.00 0.01 0.00 89 1009.3
20260505085253 47 190 0.0 0.0 0.00 0.01 0.00 86 1009.2
20260505082120 47 190 0.0 0.0 0.00 0.01 0.00 85 1009.1
20260505080612 48 190 0.0 0.0 0.00 0.01 0.00 84 1009.2
20260505075106 49 190 0.0 0.0 0.00 0.01 0.00 83 1009.1
20260505072008 49 190 0.0 0.0 0.00 0.01 0.00 84 1009.1
20260505070500 49 206 0.0 0.0 0.00 0.01 0.00 84 1009.0
20260505064951 50 206 0.0 0.0 0.00 0.01 0.00 83 1009.1
20260505054552 47 184 0.0 0.0 0.00 0.01 0.00 88 1008.9
20260505053052 46 156 0.0 0.0 0.00 0.01 0.00 89 1008.8
20260505051602 46 156 0.0 0.0 0.00 0.01 0.00 89 1008.5
20260505041253 45 156 0.0 0.0 0.00 0.01 0.00 89 1008.6
20260505035828 45 156 0.0 0.0 0.00 0.01 0.01 89 1008.6
20260505034255 45 156 0.0 0.0 0.00 0.01 0.01 89 1008.6
20260505032817 45 156 0.0 0.0 0.00 0.01 0.01 88 1008.6
20260505031338 45 156 0.0 0.0 0.00 0.01 0.01 88 1008.4
20260505021003 46 156 0.0 0.0 0.00 0.01 0.01 88 1008.5
20260505015452 46 156 0.0 0.0 0.00 0.01 0.01 87 1008.5
20260505013937 46 156 0.0 0.0 0.00 0.01 0.01 87 1008.5
20260505010908 48 156 0.0 0.0 0.00 0.01 0.01 86 1008.2
20260505005439 48 156 0.0 0.0 0.00 0.01 0.01 85 1008.1
20260505003929 50 156 0.0 0.0 0.00 0.01 0.01 83 1008.0
20260505002457 51 156 0.0 0.0 0.00 0.01 0.01 81 1007.8
20260505001036 52 156 0.0 0.0 0.00 0.01 0.01 81 1007.5
20260504235508 54 156 0.0 0.0 0.00 0.01 0.01 79 1007.4
20260504234038 55 156 0.0 0.0 0.00 0.01 0.01 77 1006.8
20260504232454 56 156 0.0 0.0 0.00 0.01 0.01 77 1006.5
20260504230934 57 156 0.0 0.0 0.00 0.01 0.01 76 1006.4
20260504225504 58 156 0.0 0.0 0.00 0.01 0.01 70 1006.3
20260504220756 61 188 0.0 0.0 0.00 0.01 0.01 63 1006.1
20260504215253 61 198 0.0 0.0 0.00 0.01 0.01 64 1005.9
20260504213821 62 180 0.0 0.0 0.00 0.01 0.01 65 1005.8
20260504212337 62 181 0.0 0.0 0.00 0.01 0.01 64 1005.7
20260504210822 62 186 0.0 0.0 0.00 0.01 0.01 65 1005.6
20260504203706 62 208 0.0 0.0 0.00 0.01 0.01 65 1005.5
20260504202158 62 182 0.0 3.5 0.00 0.01 0.01 66 1005.6
20260504200714 61 189 0.0 0.0 0.00 0.01 0.01 68 1005.6
20260504195228 60 172 0.0 0.0 0.00 0.01 0.01 69 1005.5
20260504193640 59 168 0.0 0.0 0.00 0.01 0.01 74 1005.6
20260504192057 57 197 0.0 0.0 0.00 0.01 0.01 76 1005.7
20260504184838 53 194 0.0 0.0 0.00 0.04 0.01 83 1006.5
20260504183303 52 205 0.0 0.0 0.00 0.05 0.01 81 1006.8
20260504181749 54 215 0.0 0.0 0.00 0.05 0.00 76 1006.9
20260504180202 56 195 0.0 0.0 0.00 0.06 0.00 68 1006.5
20260504171350 56 208 0.0 0.9 0.00 0.10 0.00 66 1006.0